Location: Brabourne
(51.1333°N, 1.0000°E)
Time: 11:53:57
(UTC+00:00)

ADEOS Rocket - Pass Details

Date: 29 October 2021
Orbit: 858 x 1307 km, 98.8° (Epoch: 26 November)

Event Time Altitude Azimuth Distance (km) Brightness Sun altitude
Exits shadow 01:13:28 12° 345° (NNW) 2,885 5.7 -47.8°
Drops below altitude 10° 01:13:54 10° 345° (NNW) 3,039 5.8 -47.8°
Sets 01:16:22 0° 346° (NNW) 3,943 6.5 -47.6°
